Temp
18 18 17 17 15 13 12 11 12 11 11 10 10 10 9 9 9 10 10 10 10 10 10 10 10 10 10 10 9 8 8 7
18 18 17 16 15 13 12 12 11 11 10 10 9 9 9 9 9 9 9 9 9 10 10 10 10 10 10 9 9 8 7 6
17 18 17 16 16 15 13 12 11 10 10 10 9 9 8 8 8 8 8 8 8 9 9 9 9 9 9 8 8 8 7 6
18 16 16 15 14 13 12 12 11 10 10 9 9 8 7 7 7 7 8 8 8 8 8 9 8 8 8 8 8 7 7 5
17 15 13 13 12 11 11 11 10 9 9 8 8 9 8 8 8 7 7 7 7 7 7 8 8 8 8 8 7 7 6 6
11 10 9 9 9 8 8 8 8 8 8 7 7 7 7 7 7 7 6 7 7 6 6 7 7 7 7 7 7 7 7 6
11 10 9 9 8 7 7 7 6 6 5 5 5 6 6 5 6 6 5 6 6 6 6 6 7 7 7 7 6 6 6 6
10 9 9 8 7 7 7 6 6 6 5 6 6 5 5 5 6 7 7 6 6 5 5 6 6 6 5 5 6 6 6 5
10 10 9 8 7 6 7 7 7 6 7 6 6 5 6 6 6 6 6 5 5 5 5 5 5 5 5 5 5 5 4 4
10 10 9 9 10 8 9 9 8 8 9 9 8 7 6 6 6 5 5 5 4 4 4 3 4 4 4 4 4 3 3 3
9 10 10 11 11 12 11 10 9 9 8 8 6 6 6 7 5 5 5 4 4 4 4 3 3 3 4 3 2 2 2 2
11 10 9 9 9 11 10 10 9 8 7 7 7 6 6 6 5 5 5 5 4 3 3 3 3 4 2 2 2 1 2 2
12 11 11 11 10 10 11 11 10 9 8 7 6 6 5 5 5 4 4 4 4 3 2 3 2 2 1 1 0 2 1 1
11 11 11 12 11 9 10 10 10 10 8 8 7 6 6 5 5 5 4 4 3 3 3 1 2 1 1 0 -1 0 0 -0
9 11 11 10 9 9 9 9 9 8 7 6 8 7 6 6 5 5 4 3 2 1 1 1 1 1 0 -0 -1 -1 -0 -1
9 9 9 9 8 8 8 8 8 7 7 7 7 7 6 6 5 4 3 2 1 -1 0 -0 0 -1 -0 -0 -2 -1 -1 -1
8 8 8 7 7 7 7 6 6 6 6 7 7 6 5 6 5 4 3 2 1 0 1 -0 -2 -1 -1 -1 -2 -2 -2 -1
7 7 6 6 6 6 6 6 6 6 6 5 5 4 5 4 4 3 3 2 1 0 -0 -1 -2 -2 -2 -2 -2 -2 -3 -2
7 7 6 7 6 6 6 6 6 6 5 4 4 3 4 4 3 2 2 0 0 -0 -1 -1 -3 -3 -3 -3 -2 -3 -4 -3
Height
1455 1457 1458 1459 1461 1465 1467 1469 1472 1477 1480 1482 1482 1483 1487 1490 1492 1491 1490 1493 1496 1498 1501 1504 1507 1509 1511 1512 1514 1516 1519 1521
1451 1453 1454 1454 1455 1458 1462 1464 1467 1469 1472 1477 1479 1479 1483 1487 1488 1489 1490 1490 1492 1494 1497 1500 1504 1507 1509 1509 1510 1512 1515 1518
1445 1444 1446 1445 1448 1451 1456 1460 1463 1467 1469 1472 1477 1478 1481 1484 1488 1487 1490 1491 1492 1492 1493 1496 1499 1503 1507 1509 1509 1510 1511 1513
1438 1437 1439 1443 1443 1444 1447 1453 1457 1458 1467 1469 1472 1476 1480 1481 1485 1487 1488 1491 1491 1491 1491 1492 1496 1498 1503 1507 1508 1508 1510 1512
1433 1431 1433 1436 1439 1442 1445 1449 1454 1459 1465 1472 1473 1473 1476 1480 1484 1488 1487 1487 1491 1493 1489 1488 1490 1495 1497 1504 1507 1506 1506 1509
1433 1433 1435 1437 1442 1444 1447 1451 1455 1457 1459 1464 1468 1472 1476 1481 1481 1483 1486 1484 1487 1491 1490 1486 1488 1490 1494 1500 1502 1507 1505 1504
1436 1436 1437 1439 1442 1446 1449 1451 1453 1457 1462 1463 1465 1466 1470 1478 1484 1481 1485 1482 1486 1488 1489 1486 1484 1486 1490 1496 1499 1502 1502 1502
1443 1441 1441 1441 1444 1447 1451 1456 1461 1462 1465 1467 1464 1469 1465 1469 1477 1476 1480 1481 1486 1489 1487 1486 1484 1483 1488 1492 1494 1498 1496 1500
1445 1444 1443 1443 1444 1449 1453 1456 1462 1467 1464 1462 1464 1466 1466 1467 1472 1474 1478 1481 1484 1488 1486 1484 1480 1482 1485 1489 1493 1493 1494 1495
1448 1446 1444 1443 1441 1447 1448 1448 1452 1456 1454 1452 1458 1457 1463 1468 1470 1469 1474 1476 1480 1484 1485 1483 1474 1478 1484 1486 1489 1491 1492 1493
1451 1450 1447 1442 1442 1440 1441 1442 1441 1448 1449 1449 1454 1458 1459 1461 1466 1469 1470 1472 1475 1478 1485 1476 1472 1476 1480 1485 1487 1488 1487 1491
1447 1445 1446 1443 1441 1437 1436 1437 1439 1442 1446 1448 1446 1454 1458 1463 1464 1463 1464 1468 1471 1475 1478 1471 1474 1471 1482 1483 1483 1488 1485 1490
1440 1436 1435 1433 1432 1432 1433 1433 1433 1435 1437 1439 1443 1449 1455 1456 1459 1464 1463 1465 1462 1467 1468 1464 1476 1474 1480 1482 1487 1481 1485 1489
1432 1431 1428 1425 1424 1426 1427 1427 1427 1429 1433 1437 1440 1443 1446 1448 1452 1456 1459 1461 1463 1457 1459 1470 1471 1474 1477 1482 1488 1482 1484 1488
1427 1425 1423 1422 1420 1419 1420 1420 1421 1423 1426 1431 1432 1434 1438 1441 1446 1450 1450 1451 1457 1460 1462 1466 1468 1470 1473 1480 1485 1482 1482 1486
1423 1422 1421 1420 1419 1416 1414 1413 1414 1416 1418 1422 1424 1426 1431 1436 1439 1443 1444 1445 1448 1455 1458 1461 1464 1469 1470 1477 1481 1482 1482 1483
1420 1420 1418 1417 1415 1412 1409 1408 1408 1408 1409 1412 1415 1419 1426 1429 1433 1437 1440 1443 1446 1450 1452 1454 1458 1464 1468 1473 1478 1480 1482 1481
1418 1417 1416 1414 1411 1409 1406 1403 1401 1400 1401 1403 1406 1413 1419 1423 1429 1432 1434 1438 1442 1446 1449 1450 1457 1462 1467 1470 1473 1475 1481 1480
1416 1414 1413 1411 1408 1405 1403 1400 1398 1396 1396 1397 1401 1406 1412 1417 1421 1426 1426 1433 1437 1442 1445 1448 1452 1460 1463 1468 1469 1471 1478 1478
Wind_Speed
32 36 35 36 36 34 34 34 36 34 31 28 27 26 25 21 18 17 17 16 15 14 12 11 9 8 8 8 8 9 10 12
27 32 37 38 39 38 40 40 40 38 36 34 32 30 27 23 19 18 17 16 16 14 12 11 9 9 9 9 10 11 13 15
20 24 33 42 43 42 42 43 42 40 36 36 33 30 26 21 19 18 16 14 13 13 12 11 10 9 8 9 10 12 14 18
22 18 28 38 44 45 45 45 43 42 38 36 32 28 24 22 20 17 15 15 14 14 13 12 10 9 9 9 11 12 14 21
21 12 18 34 37 41 43 43 44 40 35 33 30 28 26 22 17 15 16 16 15 15 14 12 12 11 10 11 11 14 16 19
17 8 9 19 25 29 33 38 39 38 34 32 30 23 19 17 17 16 18 16 15 15 14 13 12 11 9 10 10 12 13 15
15 9 6 10 16 22 26 31 35 28 19 17 18 18 15 17 17 17 17 16 17 18 15 13 12 10 9 9 9 10 11 13
11 8 4 5 11 17 22 17 4 2 8 24 18 19 15 17 19 16 18 16 16 15 13 12 11 9 8 7 7 8 7 10
7 5 3 3 8 15 15 8 13 11 1 11 22 22 21 21 20 15 16 14 13 16 14 12 10 7 6 7 6 5 6 6
4 1 3 8 11 16 9 6 7 18 17 17 24 23 24 24 21 18 18 17 16 15 13 12 10 9 7 6 6 5 5 5
12 9 11 11 15 14 15 17 19 24 25 27 31 29 26 21 25 23 20 18 17 15 15 13 9 8 6 7 7 7 6 5
30 28 25 27 28 26 22 20 21 25 32 32 29 30 29 29 28 23 21 20 17 15 14 9 8 7 10 9 9 9 6 7
28 26 26 25 30 32 25 22 24 28 25 29 34 33 35 30 28 27 24 20 17 16 13 8 11 11 11 9 12 9 9 8
23 28 22 21 29 31 32 29 28 26 28 30 33 33 31 29 29 25 22 21 19 16 13 14 13 15 11 12 12 10 10 10
20 26 26 29 26 26 28 34 34 33 34 33 30 32 29 27 28 26 24 18 20 19 16 14 14 14 14 15 14 12 12 12
12 14 16 17 19 19 20 26 33 37 39 36 36 35 27 29 28 28 25 23 22 23 17 16 16 17 16 17 16 13 13 12
13 17 18 21 24 27 26 24 23 23 32 36 38 37 30 22 32 28 25 24 25 25 23 24 22 21 19 17 16 14 14 13
15 17 16 18 20 19 20 20 20 24 24 29 35 37 35 36 31 30 27 27 28 25 20 19 17 22 20 18 16 14 15 13
14 15 17 19 18 18 19 19 15 15 17 21 26 31 34 33 34 33 30 30 28 24 22 19 20 23 19 18 17 14 16 14
Wind_Direction
255 247 244 241 239 229 219 220 218 216 216 216 217 216 220 224 229 232 229 225 220 217 219 222 222 220 220 216 208 200 190 188
280 263 251 244 239 232 224 220 218 214 213 215 215 215 218 222 226 228 226 219 213 212 212 215 218 216 213 204 199 191 182 182
286 272 260 247 243 235 228 223 220 217 214 216 218 216 218 222 225 222 224 223 216 210 205 204 205 206 205 201 197 190 187 186
323 291 260 250 240 234 228 223 218 214 214 215 214 215 218 218 222 221 222 221 218 211 204 200 200 197 202 205 202 197 200 191
339 319 258 242 237 237 230 222 215 212 213 219 221 226 224 228 230 229 222 214 215 216 205 197 194 200 201 209 209 206 204 210
4 352 248 234 229 225 221 217 208 209 212 217 218 223 229 238 228 226 223 213 214 218 214 203 201 198 199 208 211 220 221 217
359 346 292 242 226 223 216 213 205 205 217 223 242 224 232 243 244 227 227 221 217 213 216 211 204 196 200 210 218 227 229 229
359 345 313 250 233 228 214 191 159 206 270 272 253 244 228 226 236 239 236 222 226 224 219 217 210 200 198 208 215 222 224 228
9 1 320 242 212 187 137 31 343 318 174 240 248 240 227 224 233 248 240 231 237 231 225 218 213 213 207 211 218 217 206 209
338 314 198 172 157 183 264 292 276 245 223 212 224 220 231 233 232 234 227 226 231 230 225 221 205 210 205 202 199 194 180 172
287 280 259 245 254 254 241 250 234 238 233 228 229 229 227 221 229 231 227 228 235 230 233 218 210 211 215 199 189 184 167 170
314 291 289 265 254 248 250 253 239 234 231 231 228 230 230 228 223 222 221 226 230 230 234 225 220 222 217 202 190 193 176 188
285 290 289 289 272 254 260 259 250 236 233 234 230 227 225 223 226 229 217 224 226 229 229 235 230 220 216 216 212 182 191 186
271 275 285 284 278 266 261 256 260 253 241 237 235 231 231 229 227 225 227 228 229 227 231 231 227 217 220 213 217 192 187 187
272 267 271 285 294 283 272 265 263 255 251 245 246 242 235 234 231 226 223 227 233 223 220 231 229 222 210 217 216 203 192 193
271 287 295 300 300 296 285 273 265 261 257 253 247 246 239 239 234 230 226 218 225 219 221 221 224 219 216 217 216 213 203 199
299 301 301 305 306 302 294 283 279 268 257 255 252 247 236 248 240 229 230 222 217 218 234 223 216 217 215 214 217 215 214 207
306 303 299 312 319 315 312 307 295 272 260 252 251 242 234 236 231 227 229 225 222 233 225 222 205 218 213 212 213 213 230 215
307 306 304 306 306 302 297 298 291 297 267 254 251 242 236 235 231 226 221 221 226 232 227 216 201 215 213 216 219 214 226 217